Time,TemperatureF,DewpointF,PressureIn,WindDirection,WindDirectionDegrees,WindSpeedMPH,WindSpeedGustMPH,Humidity,HourlyPrecipIn,Conditions,Clouds,dailyrainin,SoftwareType,DateUTC
2013-05-14 00:00:00,74.7,50.1,25.33,WSW,240,3.0,10.0,42,0.00,,SKC,0.00,VWS V14.01,2013-05-14 05:00:00,
2013-05-14 00:05:00,72.1,50.2,23.32,SSW,205,5.0,9.0,46,0.00,,SKC,0.00,VWS V14.01,2013-05-14 05:05:00,
2013-05-14 00:11:00,71.8,49.9,23.32,SSW,213,6.0,9.0,46,0.00,,SKC,0.00,VWS V14.01,2013-05-14 05:11:00,
2013-05-14 00:17:00,71.6,50.3,23.32,SW,236,5.0,9.0,47,0.00,,SKC,0.00,VWS V14.01,2013-05-14 05:17:00,
2013-05-14 00:23:00,71.4,50.1,23.32,SW,219,2.0,9.0,47,0.00,,SKC,0.00,VWS V14.01,2013-05-14 05:23:00,
2013-05-14 00:29:00,71.2,50.5,23.32,SSW,207,6.0,9.0,48,0.00,,SKC,0.00,VWS V14.01,2013-05-14 05:29:00,
2013-05-14 00:30:00,73.8,49.3,25.33,South,191,8.0,14.0,42,0.00,,SKC,0.00,VWS V14.01,2013-05-14 05:30:00,
2013-05-14 00:35:00,71.0,50.3,23.32,WSW,243,6.0,9.0,48,0.00,,SKC,0.00,VWS V14.01,2013-05-14 05:35:00,
2013-05-14 00:41:00,71.0,50.9,23.32,SW,219,6.0,10.0,49,0.00,,SKC,0.00,VWS V14.01,2013-05-14 05:41:00,
2013-05-14 00:47:00,70.8,50.7,24.08,WSW,238,4.0,10.0,49,0.00,,SKC,0.00,VWS V14.01,2013-05-14 05:47:00,
2013-05-14 00:53:00,70.6,51.1,24.08,SW,235,6.0,10.0,50,0.00,,SKC,0.00,VWS V14.01,2013-05-14 05:53:00,
2013-05-14 00:59:00,70.5,51.5,24.08,WSW,240,8.0,10.0,51,0.00,,SKC,0.00,VWS V14.01,2013-05-14 05:59:00,
2013-05-14 01:00:00,72.2,49.7,23.32,SSW,192,7.0,13.0,45,0.00,,SKC,0.00,VWS V14.01,2013-05-14 06:00:00,
2013-05-14 01:05:00,70.4,52.0,24.08,WSW,247,5.0,8.0,52,0.00,,SKC,0.00,VWS V14.01,2013-05-14 06:05:00,
2013-05-14 01:11:00,70.2,51.8,24.08,SSW,197,7.0,10.0,52,0.00,,SKC,0.00,VWS V14.01,2013-05-14 06:11:00,
2013-05-14 01:17:00,70.1,51.7,24.08,SW,229,8.0,10.0,52,0.00,,SKC,0.00,VWS V14.01,2013-05-14 06:17:00,
2013-05-14 01:23:00,70.0,52.1,24.08,SW,223,6.0,11.0,53,0.00,,SKC,0.00,VWS V14.01,2013-05-14 06:23:00,
2013-05-14 01:29:00,69.8,52.4,24.08,SSW,197,7.0,12.0,54,0.00,,SKC,0.00,VWS V14.01,2013-05-14 06:29:00,
2013-05-14 01:30:00,71.2,50.5,23.32,SSW,193,5.0,9.0,48,0.00,,SKC,0.00,VWS V14.01,2013-05-14 06:30:00,
2013-05-14 01:35:00,69.7,52.3,24.08,SW,227,3.0,9.0,54,0.00,,SKC,0.00,VWS V14.01,2013-05-14 06:35:00,
2013-05-14 01:41:00,69.4,52.5,24.08,SSW,209,7.0,9.0,55,0.00,,SKC,0.00,VWS V14.01,2013-05-14 06:41:00,
2013-05-14 01:47:00,69.2,52.8,24.08,SSW,208,4.0,10.0,56,0.00,,SKC,0.00,VWS V14.01,2013-05-14 06:47:00,
2013-05-14 01:53:00,69.0,53.2,24.83,SW,227,7.0,10.0,57,0.00,,SKC,0.00,VWS V14.01,2013-05-14 06:53:00,
2013-05-14 01:59:00,68.9,53.1,24.83,SSW,200,5.0,15.0,57,0.00,,SKC,0.00,VWS V14.01,2013-05-14 06:59:00,
2013-05-14 02:00:00,70.5,51.5,24.08,SSW,206,6.0,10.0,51,0.00,,SKC,0.00,VWS V14.01,2013-05-14 07:00:00,
2013-05-14 02:05:00,68.7,53.3,24.83,SSW,207,7.0,10.0,58,0.00,,SKC,0.00,VWS V14.01,2013-05-14 07:05:00,
2013-05-14 02:11:00,68.5,53.6,23.64,SSW,204,6.0,10.0,59,0.00,,SKC,0.00,VWS V14.01,2013-05-14 07:11:00,
2013-05-14 02:17:00,68.2,54.2,23.64,SSW,204,7.0,10.0,61,0.00,,SKC,0.00,VWS V14.01,2013-05-14 07:17:00,
2013-05-14 02:23:00,68.1,54.2,23.64,South,175,5.0,10.0,61,0.00,,SKC,0.00,VWS V14.01,2013-05-14 07:23:00,
2013-05-14 02:29:00,67.9,54.4,23.64,WSW,242,5.0,10.0,62,0.00,,SKC,0.00,VWS V14.01,2013-05-14 07:29:00,
2013-05-14 02:30:00,69.8,52.4,24.08,SSW,209,7.0,12.0,54,0.00,,SKC,0.00,VWS V14.01,2013-05-14 07:30:00,
2013-05-14 02:35:00,67.6,54.1,23.64,SW,228,5.0,9.0,62,0.00,,SKC,0.00,VWS V14.01,2013-05-14 07:35:00,
2013-05-14 02:41:00,67.4,54.4,23.64,SW,221,8.0,9.0,63,0.00,,SKC,0.00,VWS V14.01,2013-05-14 07:41:00,
2013-05-14 02:47:00,67.1,54.5,23.64,SW,225,7.0,9.0,64,0.00,,SKC,0.00,VWS V14.01,2013-05-14 07:47:00,
2013-05-14 02:53:00,66.9,55.2,23.64,WSW,248,3.0,9.0,66,0.00,,SKC,0.00,VWS V14.01,2013-05-14 07:53:00,
2013-05-14 02:59:00,66.7,55.4,23.64,SW,223,4.0,9.0,67,0.00,,SKC,0.00,VWS V14.01,2013-05-14 07:59:00,
2013-05-14 03:00:00,68.9,53.5,24.83,West,267,4.0,15.0,58,0.00,,SKC,0.00,VWS V14.01,2013-05-14 08:00:00,
2013-05-14 03:05:00,66.6,55.3,23.64,SW,221,9.0,9.0,67,0.00,,SKC,0.00,VWS V14.01,2013-05-14 08:05:00,
2013-05-14 03:11:00,66.5,55.6,23.64,SW,224,4.0,11.0,68,0.00,,SKC,0.00,VWS V14.01,2013-05-14 08:11:00,
2013-05-14 03:17:00,66.5,56.0,23.64,South,175,5.0,11.0,69,0.00,,SKC,0.00,VWS V14.01,2013-05-14 08:17:00,
2013-05-14 03:23:00,66.4,55.9,23.64,SSW,207,6.0,11.0,69,0.00,,SKC,0.00,VWS V14.01,2013-05-14 08:23:00,
2013-05-14 03:29:00,66.3,56.2,23.64,SW,224,7.0,11.0,70,0.00,,SKC,0.00,VWS V14.01,2013-05-14 08:29:00,
2013-05-14 03:30:00,67.8,54.3,23.64,SSW,204,6.0,10.0,62,0.00,,SKC,0.00,VWS V14.01,2013-05-14 08:30:00,
2013-05-14 03:35:00,66.3,56.6,23.64,WSW,244,7.0,10.0,71,0.00,,SKC,0.00,VWS V14.01,2013-05-14 08:35:00,
2013-05-14 03:41:00,66.3,56.6,23.64,West,273,6.0,10.0,71,0.00,,SKC,0.00,VWS V14.01,2013-05-14 08:41:00,
2013-05-14 03:47:00,66.3,57.0,23.64,SW,216,4.0,11.0,72,0.00,,SKC,0.00,VWS V14.01,2013-05-14 08:47:00,
2013-05-14 03:53:00,66.3,57.0,23.64,SSW,199,5.0,11.0,72,0.00,,SKC,0.00,VWS V14.01,2013-05-14 08:53:00,
2013-05-14 03:59:00,66.3,57.0,23.64,SW,214,4.0,11.0,72,0.00,,SKC,0.00,VWS V14.01,2013-05-14 08:59:00,
2013-05-14 04:00:00,66.7,55.4,23.64,SW,221,3.0,9.0,67,0.00,,SKC,0.00,VWS V14.01,2013-05-14 09:00:00,
2013-05-14 04:05:00,66.2,57.3,23.64,South,178,5.0,12.0,73,0.00,,SKC,0.00,VWS V14.01,2013-05-14 09:05:00,
2013-05-14 04:11:00,66.1,57.2,23.64,SW,218,7.0,12.0,73,0.00,,SKC,0.00,VWS V14.01,2013-05-14 09:11:00,
2013-05-14 04:17:00,66.1,57.2,23.64,SSW,198,8.0,12.0,73,0.00,,SKC,0.00,VWS V14.01,2013-05-14 09:17:00,
2013-05-14 04:23:00,66.1,57.2,23.64,SSW,196,8.0,12.0,73,0.00,,SKC,0.00,VWS V14.01,2013-05-14 09:23:00,
2013-05-14 04:29:00,66.1,57.6,23.64,WSW,240,6.0,12.0,74,0.00,,SKC,0.00,VWS V14.01,2013-05-14 09:29:00,
2013-05-14 04:30:00,66.3,56.2,23.64,SSW,205,6.0,11.0,70,0.00,,SKC,0.00,VWS V14.01,2013-05-14 09:30:00,
2013-05-14 04:35:00,66.1,57.6,23.99,SSW,194,7.0,10.0,74,0.00,,SKC,0.00,VWS V14.01,2013-05-14 09:35:00,
2013-05-14 04:41:00,65.9,57.4,23.99,SW,234,6.0,10.0,74,0.00,,SKC,0.00,VWS V14.01,2013-05-14 09:41:00,
2013-05-14 04:47:00,65.9,57.4,23.99,SW,223,10.0,12.0,74,0.00,,SKC,0.00,VWS V14.01,2013-05-14 09:47:00,
2013-05-14 04:53:00,65.8,57.3,23.99,SSW,210,5.0,12.0,74,0.00,,SKC,0.00,VWS V14.01,2013-05-14 09:53:00,
2013-05-14 04:59:00,65.7,57.2,23.99,West,270,4.0,12.0,74,0.00,,SKC,0.00,VWS V14.01,2013-05-14 09:59:00,
2013-05-14 05:00:00,66.3,57.0,23.64,SW,223,4.0,11.0,72,0.00,,SKC,0.00,VWS V14.01,2013-05-14 10:00:00,
2013-05-14 05:05:00,65.6,57.5,23.99,WNW,298,6.0,12.0,75,0.00,,SKC,0.00,VWS V14.01,2013-05-14 10:05:00,
2013-05-14 05:11:00,65.6,57.5,23.99,WSW,252,7.0,12.0,75,0.00,,SKC,0.00,VWS V14.01,2013-05-14 10:11:00,
2013-05-14 05:17:00,65.3,57.2,23.99,WSW,237,4.0,12.0,75,0.00,,SKC,0.00,VWS V14.01,2013-05-14 10:17:00,
2013-05-14 05:23:00,65.1,57.4,23.99,South,173,3.0,12.0,76,0.00,,SKC,0.00,VWS V14.01,2013-05-14 10:23:00,
2013-05-14 05:29:00,64.9,57.2,23.99,SW,235,6.0,12.0,76,0.00,,SKC,0.00,VWS V14.01,2013-05-14 10:29:00,
2013-05-14 05:30:00,66.1,57.6,23.64,SW,226,8.0,12.0,74,0.00,,SKC,0.00,VWS V14.01,2013-05-14 10:30:00,
2013-05-14 05:35:00,64.7,57.3,24.69,West,279,7.0,10.0,77,0.00,,SKC,0.00,VWS V14.01,2013-05-14 10:35:00,
2013-05-14 05:41:00,64.5,57.5,25.01,WSW,249,4.0,10.0,78,0.00,,SKC,0.00,VWS V14.01,2013-05-14 10:41:00,
2013-05-14 05:47:00,64.3,57.7,25.01,WSW,258,4.0,13.0,79,0.00,,SKC,0.00,VWS V14.01,2013-05-14 10:47:00,
2013-05-14 05:53:00,64.2,57.6,25.01,SSW,213,7.0,13.0,79,0.00,,SKC,0.00,VWS V14.01,2013-05-14 10:53:00,
2013-05-14 05:59:00,64.1,57.8,25.01,South,180,3.0,13.0,80,0.00,,SKC,0.00,VWS V14.01,2013-05-14 10:59:00,
2013-05-14 06:00:00,65.6,57.5,23.99,West,267,6.0,12.0,75,0.00,,SKC,0.00,VWS V14.01,2013-05-14 11:00:00,
2013-05-14 06:05:00,64.1,57.8,25.01,South,179,6.0,10.0,80,0.00,,SKC,0.00,VWS V14.01,2013-05-14 11:05:00,
2013-05-14 06:11:00,64.0,57.7,25.01,SSE,165,4.0,10.0,80,0.00,,SKC,0.00,VWS V14.01,2013-05-14 11:11:00,
2013-05-14 06:17:00,64.0,57.7,25.01,South,190,4.0,10.0,80,0.00,,SKC,0.00,VWS V14.01,2013-05-14 11:17:00,
2013-05-14 06:23:00,63.9,58.0,25.01,South,174,4.0,10.0,81,0.00,,SKC,0.00,VWS V14.01,2013-05-14 11:23:00,
2013-05-14 06:29:00,63.9,58.0,25.58,SSW,194,7.0,10.0,81,0.00,,SKC,0.00,VWS V14.01,2013-05-14 11:29:00,
2013-05-14 06:30:00,64.8,57.4,23.99,SSE,156,3.0,12.0,77,0.00,,SKC,0.00,VWS V14.01,2013-05-14 11:30:00,
2013-05-14 06:35:00,63.7,57.8,25.58,SSE,167,6.0,7.0,81,0.00,,SKC,0.00,VWS V14.01,2013-05-14 11:35:00,
2013-05-14 06:41:00,63.4,57.8,25.58,SSW,200,3.0,8.0,82,0.00,,SKC,0.00,VWS V14.01,2013-05-14 11:41:00,
2013-05-14 06:48:00,63.2,57.6,25.58,WSW,244,4.0,8.0,82,0.00,,SKC,0.00,VWS V14.01,2013-05-14 11:48:00,
2013-05-14 06:54:00,63.1,57.5,25.58,WSW,238,4.0,9.0,82,0.00,,SKC,0.00,VWS V14.01,2013-05-14 11:54:00,
2013-05-14 07:00:00,63.1,57.9,25.58,SSW,211,6.0,9.0,83,0.00,,SKC,0.00,VWS V14.01,2013-05-14 12:00:00,
2013-05-14 07:06:00,63.2,58.0,25.58,SW,222,5.0,9.0,83,0.00,,SKC,0.00,VWS V14.01,2013-05-14 12:06:00,
2013-05-14 07:12:00,63.3,58.1,25.58,SW,215,3.0,9.0,83,0.00,,SKC,0.00,VWS V14.01,2013-05-14 12:12:00,
2013-05-14 07:18:00,63.6,58.3,25.58,SSW,200,7.0,10.0,83,0.00,,SKC,0.00,VWS V14.01,2013-05-14 12:18:00,
2013-05-14 07:24:00,64.0,58.7,25.58,SSW,201,4.0,10.0,83,0.00,,SKC,0.00,VWS V14.01,2013-05-14 12:24:00,
2013-05-14 07:30:00,64.1,58.8,22.53,WSW,248,4.0,10.0,83,0.00,,SKC,0.00,VWS V14.01,2013-05-14 12:30:00,
2013-05-14 07:36:00,64.2,58.9,22.53,SW,217,4.0,8.0,83,0.00,,SKC,0.00,VWS V14.01,2013-05-14 12:36:00,
2013-05-14 07:42:00,64.4,59.1,22.53,SW,229,9.0,9.0,83,0.00,,SKC,0.00,VWS V14.01,2013-05-14 12:42:00,
2013-05-14 07:48:00,64.8,59.5,22.53,SSW,196,4.0,9.0,83,0.00,,SKC,0.00,VWS V14.01,2013-05-14 12:48:00,
2013-05-14 07:54:00,65.2,59.6,22.53,SSW,210,8.0,11.0,82,0.00,,SKC,0.00,VWS V14.01,2013-05-14 12:54:00,
2013-05-14 08:00:00,65.3,59.7,22.53,SW,233,7.0,11.0,82,0.00,,SKC,0.00,VWS V14.01,2013-05-14 13:00:00,
2013-05-14 08:06:00,65.4,59.8,22.53,SSW,198,8.0,10.0,82,0.00,,SKC,0.00,VWS V14.01,2013-05-14 13:06:00,
2013-05-14 08:12:00,65.2,59.6,22.53,SSW,202,5.0,12.0,82,0.00,,SKC,0.00,VWS V14.01,2013-05-14 13:12:00,
2013-05-14 08:18:00,65.3,59.7,22.53,WNW,300,6.0,12.0,82,0.00,,SKC,0.00,VWS V14.01,2013-05-14 13:18:00,
2013-05-14 08:24:00,65.5,59.9,22.53,SW,214,7.0,12.0,82,0.00,,SKC,0.00,VWS V14.01,2013-05-14 13:24:00,
2013-05-14 08:30:00,65.7,60.1,19.86,SSW,209,7.0,12.0,82,0.00,,SKC,0.00,VWS V14.01,2013-05-14 13:30:00,
2013-05-14 08:36:00,65.9,59.9,19.86,SSW,201,9.0,13.0,81,0.00,,SKC,0.00,VWS V14.01,2013-05-14 13:36:00,
2013-05-14 08:42:00,66.0,60.0,19.86,SW,236,6.0,13.0,81,0.00,,SKC,0.00,VWS V14.01,2013-05-14 13:42:00,
2013-05-14 08:48:00,66.4,60.4,19.86,SW,221,8.0,13.0,81,0.00,,SKC,0.00,VWS V14.01,2013-05-14 13:48:00,
2013-05-14 08:54:00,66.6,60.2,19.86,South,191,10.0,13.0,80,0.00,,SKC,0.00,VWS V14.01,2013-05-14 13:54:00,
2013-05-14 09:00:00,66.8,60.1,19.86,WSW,248,4.0,13.0,79,0.00,,SKC,0.00,VWS V14.01,2013-05-14 14:00:00,
2013-05-14 09:06:00,67.2,60.8,19.86,SSW,194,4.0,7.0,80,0.00,,SKC,0.00,VWS V14.01,2013-05-14 14:06:00,
2013-05-14 09:12:00,67.7,61.0,19.86,SSW,202,2.0,7.0,79,0.00,,SKC,0.00,VWS V14.01,2013-05-14 14:12:00,
2013-05-14 09:18:00,68.4,61.3,19.86,WSW,248,5.0,8.0,78,0.00,,SKC,0.00,VWS V14.01,2013-05-14 14:18:00,
2013-05-14 09:24:00,69.0,61.5,19.86,SSW,195,7.0,11.0,77,0.00,,SKC,0.00,VWS V14.01,2013-05-14 14:24:00,
2013-05-14 09:30:00,69.6,61.3,19.86,West,271,4.0,11.0,75,0.00,,SKC,0.00,VWS V14.01,2013-05-14 14:30:00,
2013-05-14 09:36:00,70.2,61.9,19.86,SSW,208,5.0,9.0,75,0.00,,SKC,0.00,VWS V14.01,2013-05-14 14:36:00,
2013-05-14 09:42:00,70.6,61.5,19.86,WSW,240,5.0,10.0,73,0.00,,SKC,0.00,VWS V14.01,2013-05-14 14:42:00,
2013-05-14 09:48:00,70.9,61.8,19.86,SW,225,5.0,10.0,73,0.00,,SKC,0.00,VWS V14.01,2013-05-14 14:48:00,
2013-05-14 09:54:00,71.3,61.4,19.86,South,191,4.0,10.0,71,0.00,,SKC,0.00,VWS V14.01,2013-05-14 14:54:00,
2013-05-14 10:00:00,71.9,61.6,19.86,SSW,200,7.0,12.0,70,0.00,,SKC,0.00,VWS V14.01,2013-05-14 15:00:00,
2013-05-14 10:06:00,72.1,61.8,19.86,SSW,213,7.0,12.0,70,0.00,,SKC,0.00,VWS V14.01,2013-05-14 15:06:00,
2013-05-14 10:12:00,72.6,61.4,19.86,SSW,206,7.0,12.0,68,0.00,,SKC,0.00,VWS V14.01,2013-05-14 15:12:00,
2013-05-14 10:18:00,72.8,61.2,19.86,SW,220,10.0,12.0,67,0.00,,SKC,0.00,VWS V14.01,2013-05-14 15:18:00,
2013-05-14 10:24:00,73.3,62.1,19.86,SW,219,6.0,12.0,68,0.00,,SKC,0.00,VWS V14.01,2013-05-14 15:24:00,
2013-05-14 10:30:00,73.8,61.7,19.86,WSW,257,7.0,13.0,66,0.00,,SKC,0.00,VWS V14.01,2013-05-14 15:30:00,
2013-05-14 10:36:00,73.9,61.8,19.86,SSW,213,8.0,13.0,66,0.00,,SKC,0.00,VWS V14.01,2013-05-14 15:36:00,
2013-05-14 10:42:00,74.1,62.0,19.86,West,269,5.0,13.0,66,0.00,,SKC,0.00,VWS V14.01,2013-05-14 15:42:00,
2013-05-14 10:48:00,74.4,61.9,19.86,SSW,207,8.0,13.0,65,0.00,,SKC,0.00,VWS V14.01,2013-05-14 15:48:00,
2013-05-14 10:54:00,74.9,61.9,19.86,SW,219,7.0,13.0,64,0.00,,SKC,0.00,VWS V14.01,2013-05-14 15:54:00,
2013-05-14 11:00:00,75.6,62.1,19.86,WSW,244,5.0,13.0,63,0.00,,SKC,0.00,VWS V14.01,2013-05-14 16:00:00,
2013-05-14 11:06:00,75.8,61.9,19.86,SSW,205,5.0,13.0,62,0.00,,SKC,0.00,VWS V14.01,2013-05-14 16:06:00,
2013-05-14 11:12:00,76.2,62.2,19.86,SSW,213,9.0,13.0,62,0.00,,SKC,0.00,VWS V14.01,2013-05-14 16:12:00,
2013-05-14 11:18:00,76.4,62.4,19.86,WSW,252,7.0,13.0,62,0.00,,SKC,0.00,VWS V14.01,2013-05-14 16:18:00,
2013-05-14 11:24:00,76.8,62.8,19.86,SSW,201,9.0,13.0,62,0.00,,SKC,0.00,VWS V14.01,2013-05-14 16:24:00,
2013-05-14 11:30:00,77.2,62.7,19.86,South,186,3.0,13.0,61,0.00,,SKC,0.00,VWS V14.01,2013-05-14 16:30:00,
2013-05-14 11:36:00,77.5,62.5,19.86,SSW,204,7.0,11.0,60,0.00,,SKC,0.00,VWS V14.01,2013-05-14 16:36:00,
2013-05-14 11:42:00,77.9,62.9,19.86,SSW,213,4.0,11.0,60,0.00,,SKC,0.00,VWS V14.01,2013-05-14 16:42:00,
2013-05-14 11:48:00,78.3,62.8,19.86,SE,143,5.0,11.0,59,0.00,,SKC,0.00,VWS V14.01,2013-05-14 16:48:00,
2013-05-14 11:54:00,78.6,63.6,19.86,SSW,207,7.0,12.0,60,0.00,,SKC,0.00,VWS V14.01,2013-05-14 16:54:00,
2013-05-14 12:00:00,79.1,62.6,19.86,WSW,257,6.0,13.0,57,0.00,,SKC,0.00,VWS V14.01,2013-05-14 17:00:00,
2013-05-14 12:06:00,79.3,63.7,19.86,SW,215,4.0,10.0,59,0.00,,SKC,0.00,VWS V14.01,2013-05-14 17:06:00,
2013-05-14 12:12:00,79.9,63.3,19.86,WSW,240,4.0,10.0,57,0.00,,SKC,0.00,VWS V14.01,2013-05-14 17:12:00,
2013-05-14 12:18:00,80.0,62.4,19.86,SSW,201,8.0,10.0,55,0.00,,SKC,0.00,VWS V14.01,2013-05-14 17:18:00,
2013-05-14 12:24:00,80.3,62.7,19.86,SW,221,5.0,10.0,55,0.00,,SKC,0.00,VWS V14.01,2013-05-14 17:24:00,
2013-05-14 12:30:00,80.5,62.3,19.86,South,190,8.0,10.0,54,0.00,,SKC,0.00,VWS V14.01,2013-05-14 17:30:00,
2013-05-14 12:36:00,80.5,62.9,19.86,West,269,5.0,8.0,55,0.00,,SKC,0.00,VWS V14.01,2013-05-14 17:36:00,
2013-05-14 12:42:00,80.9,62.7,19.86,SSW,201,5.0,13.0,54,0.00,,SKC,0.00,VWS V14.01,2013-05-14 17:42:00,
2013-05-14 12:48:00,81.4,62.6,19.86,WSW,253,5.0,13.0,53,0.00,,SKC,0.00,VWS V14.01,2013-05-14 17:48:00,
2013-05-14 12:54:00,81.8,61.9,19.86,SW,217,8.0,13.0,51,0.00,,SKC,0.00,VWS V14.01,2013-05-14 17:54:00,
2013-05-14 13:00:00,81.7,61.8,19.86,SW,225,7.0,13.0,51,0.00,,SKC,0.00,VWS V14.01,2013-05-14 18:00:00,
2013-05-14 13:06:00,81.8,61.9,19.86,SSW,209,7.0,10.0,51,0.00,,SKC,0.00,VWS V14.01,2013-05-14 18:06:00,
2013-05-14 13:12:00,82.0,62.1,19.86,SW,217,8.0,13.0,51,0.00,,SKC,0.00,VWS V14.01,2013-05-14 18:12:00,
2013-05-14 13:18:00,81.8,61.9,19.86,SSW,203,3.0,13.0,51,0.00,,SKC,0.00,VWS V14.01,2013-05-14 18:18:00,
2013-05-14 13:24:00,82.0,61.0,19.86,West,261,6.0,13.0,49,0.00,,SKC,0.00,VWS V14.01,2013-05-14 18:24:00,
2013-05-14 13:30:00,82.6,61.5,19.86,West,274,8.0,13.0,49,0.00,,SKC,0.00,VWS V14.01,2013-05-14 18:30:00,
2013-05-14 13:37:00,82.5,61.4,19.86,WSW,255,7.0,13.0,49,0.00,,SKC,0.00,VWS V14.01,2013-05-14 18:37:00,
2013-05-14 13:43:00,82.7,60.4,19.86,SSW,200,6.0,13.0,47,0.00,,SKC,0.00,VWS V14.01,2013-05-14 18:43:00,
2013-05-14 13:49:00,82.9,60.6,19.86,SSW,203,7.0,13.0,47,0.00,,SKC,0.00,VWS V14.01,2013-05-14 18:49:00,
2013-05-14 13:55:00,82.9,61.2,19.86,South,179,4.0,13.0,48,0.00,,SKC,0.00,VWS V14.01,2013-05-14 18:55:00,
2013-05-14 14:00:00,81.7,61.8,19.86,SW,226,5.0,13.0,51,0.00,,SKC,0.00,VWS V14.01,2013-05-14 19:00:00,
2013-05-14 14:01:00,83.0,62.5,19.86,SW,229,7.0,13.0,50,0.00,,SKC,0.00,VWS V14.01,2013-05-14 19:01:00,
2013-05-14 14:07:00,83.3,61.0,19.86,SSW,208,8.0,12.0,47,0.00,,SKC,0.00,VWS V14.01,2013-05-14 19:07:00,
2013-05-14 14:13:00,83.8,60.2,19.86,SW,215,9.0,12.0,45,0.00,,SKC,0.00,VWS V14.01,2013-05-14 19:13:00,
2013-05-14 14:19:00,84.0,59.8,19.86,SSE,168,8.0,12.0,44,0.00,,SKC,0.00,VWS V14.01,2013-05-14 19:19:00,
2013-05-14 14:25:00,84.2,60.6,19.86,SSW,213,5.0,12.0,45,0.00,,SKC,0.00,VWS V14.01,2013-05-14 19:25:00,
2013-05-14 14:30:00,82.7,61.6,19.86,South,177,3.0,13.0,49,0.00,,SKC,0.00,VWS V14.01,2013-05-14 19:30:00,
2013-05-14 14:31:00,84.2,61.2,19.86,WSW,238,12.0,12.0,46,0.00,,SKC,0.00,VWS V14.01,2013-05-14 19:31:00,
2013-05-14 14:37:00,84.1,58.5,19.86,SSE,150,8.0,11.0,42,0.00,,SKC,0.00,VWS V14.01,2013-05-14 19:37:00,
2013-05-14 14:43:00,84.5,58.2,19.86,West,267,6.0,13.0,41,0.00,,SKC,0.00,VWS V14.01,2013-05-14 19:43:00,
2013-05-14 14:49:00,83.9,56.3,19.86,SSW,192,7.0,17.0,39,0.00,,SKC,0.00,VWS V14.01,2013-05-14 19:49:00,
2013-05-14 14:55:00,84.1,59.2,19.86,WSW,239,13.0,17.0,43,0.00,,SKC,0.00,VWS V14.01,2013-05-14 19:55:00,
2013-05-14 15:00:00,83.1,61.4,19.86,SSW,210,12.0,13.0,48,0.00,,SKC,0.00,VWS V14.01,2013-05-14 20:00:00,
2013-05-14 15:01:00,84.5,58.2,19.86,WSW,248,6.0,17.0,41,0.00,,SKC,0.00,VWS V14.01,2013-05-14 20:01:00,
2013-05-14 15:07:00,84.6,57.6,19.86,SSW,195,8.0,17.0,40,0.00,,SKC,0.00,VWS V14.01,2013-05-14 20:07:00,
2013-05-14 15:13:00,84.4,58.2,19.86,SSW,209,4.0,17.0,41,0.00,,SKC,0.00,VWS V14.01,2013-05-14 20:13:00,
2013-05-14 15:19:00,85.2,57.5,19.86,South,184,4.0,17.0,39,0.00,,SKC,0.00,VWS V14.01,2013-05-14 20:19:00,
2013-05-14 15:25:00,85.2,58.2,19.86,SSE,161,8.0,17.0,40,0.00,,SKC,0.00,VWS V14.01,2013-05-14 20:25:00,
2013-05-14 15:30:00,84.2,61.2,19.86,SSW,210,6.0,12.0,46,0.00,,SKC,0.00,VWS V14.01,2013-05-14 20:30:00,
2013-05-14 15:31:00,84.7,56.3,19.86,SSW,213,5.0,17.0,38,0.00,,SKC,0.00,VWS V14.01,2013-05-14 20:31:00,
2013-05-14 15:37:00,85.0,56.6,19.86,SSW,211,7.0,15.0,38,0.00,,SKC,0.00,VWS V14.01,2013-05-14 20:37:00,
2013-05-14 15:43:00,84.7,54.8,19.86,SW,215,5.0,15.0,36,0.00,,SKC,0.00,VWS V14.01,2013-05-14 20:43:00,
2013-05-14 15:49:00,84.6,54.0,19.86,SW,234,7.0,15.0,35,0.00,,SKC,0.00,VWS V14.01,2013-05-14 20:49:00,
2013-05-14 15:55:00,84.7,54.8,19.86,South,182,7.0,15.0,36,0.00,,SKC,0.00,VWS V14.01,2013-05-14 20:55:00,
2013-05-14 16:00:00,84.5,58.2,19.86,SSW,204,5.0,17.0,41,0.00,,SKC,0.00,VWS V14.01,2013-05-14 21:00:00,
2013-05-14 16:01:00,84.8,55.7,19.86,North,360,7.0,15.0,37,0.00,,SKC,0.00,VWS V14.01,2013-05-14 21:01:00,
2013-05-14 16:07:00,85.1,53.6,19.86,South,182,10.0,15.0,34,0.00,,SKC,0.00,VWS V14.01,2013-05-14 21:07:00,
2013-05-14 16:13:00,84.8,52.5,19.86,SW,227,6.0,15.0,33,0.00,,SKC,0.00,VWS V14.01,2013-05-14 21:13:00,
2013-05-14 16:19:00,85.2,54.5,19.86,WSW,237,7.0,15.0,35,0.00,,SKC,0.00,VWS V14.01,2013-05-14 21:19:00,
2013-05-14 16:25:00,85.2,53.7,19.86,South,191,16.0,16.0,34,0.00,,SKC,0.00,VWS V14.01,2013-05-14 21:25:00,
2013-05-14 16:30:00,84.8,56.4,19.86,South,188,15.0,17.0,38,0.00,,SKC,0.00,VWS V14.01,2013-05-14 21:30:00,
2013-05-14 16:31:00,85.1,52.8,19.86,SSE,157,7.0,16.0,33,0.00,,SKC,0.00,VWS V14.01,2013-05-14 21:31:00,
2013-05-14 16:37:00,84.7,53.3,19.86,SSW,194,7.0,16.0,34,0.00,,SKC,0.00,VWS V14.01,2013-05-14 21:37:00,
2013-05-14 16:43:00,84.7,54.0,19.86,WNW,292,7.0,16.0,35,0.00,,SKC,0.00,VWS V14.01,2013-05-14 21:43:00,
2013-05-14 16:49:00,85.0,53.5,19.86,SSW,200,10.0,16.0,34,0.00,,SKC,0.00,VWS V14.01,2013-05-14 21:49:00,
2013-05-14 16:55:00,85.2,53.7,19.86,SSW,206,10.0,16.0,34,0.00,,SKC,0.00,VWS V14.01,2013-05-14 21:55:00,
2013-05-14 17:00:00,84.8,55.7,19.86,South,177,6.0,15.0,37,0.00,,SKC,0.00,VWS V14.01,2013-05-14 22:00:00,
2013-05-14 17:01:00,85.0,54.3,19.86,SW,221,14.0,16.0,35,0.00,,SKC,0.00,VWS V14.01,2013-05-14 22:01:00,
2013-05-14 17:07:00,85.0,52.7,19.86,SSW,212,14.0,14.0,33,0.00,,SKC,0.00,VWS V14.01,2013-05-14 22:07:00,
2013-05-14 17:13:00,84.6,52.4,19.86,SSW,205,2.0,17.0,33,0.00,,SKC,0.00,VWS V14.01,2013-05-14 22:13:00,
2013-05-14 17:19:00,84.8,54.9,19.86,South,188,5.0,17.0,36,0.00,,SKC,0.00,VWS V14.01,2013-05-14 22:19:00,
2013-05-14 17:25:00,84.7,54.0,19.86,SW,234,7.0,17.0,35,0.00,,SKC,0.00,VWS V14.01,2013-05-14 22:25:00,
2013-05-14 17:30:00,85.0,52.7,19.86,South,186,9.0,16.0,33,0.00,,SKC,0.00,VWS V14.01,2013-05-14 22:30:00,
2013-05-14 17:31:00,84.7,53.3,19.86,SSE,160,6.0,17.0,34,0.00,,SKC,0.00,VWS V14.01,2013-05-14 22:31:00,
2013-05-14 17:37:00,84.5,53.1,19.86,SW,217,11.0,14.0,34,0.00,,SKC,0.00,VWS V14.01,2013-05-14 22:37:00,
2013-05-14 17:43:00,84.3,54.5,19.86,West,263,4.0,14.0,36,0.00,,SKC,0.00,VWS V14.01,2013-05-14 22:43:00,
2013-05-14 17:49:00,84.5,55.4,19.86,South,188,9.0,14.0,37,0.00,,SKC,0.00,VWS V14.01,2013-05-14 22:49:00,
2013-05-14 17:55:00,84.2,55.1,19.86,SSW,202,7.0,17.0,37,0.00,,SKC,0.00,VWS V14.01,2013-05-14 22:55:00,
2013-05-14 18:00:00,85.0,54.3,19.86,South,188,7.0,16.0,35,0.00,,SKC,0.00,VWS V14.01,2013-05-14 23:00:00,
2013-05-14 18:01:00,84.0,55.7,19.86,SW,215,6.0,19.0,38,0.00,,SKC,0.00,VWS V14.01,2013-05-14 23:01:00,
2013-05-14 18:07:00,84.0,55.7,19.86,SSW,209,7.0,16.0,38,0.00,,SKC,0.00,VWS V14.01,2013-05-14 23:07:00,
2013-05-14 18:13:00,83.9,55.6,19.86,South,190,11.0,16.0,38,0.00,,SKC,0.00,VWS V14.01,2013-05-14 23:13:00,
2013-05-14 18:19:00,83.6,55.3,19.86,WSW,254,9.0,16.0,38,0.00,,SKC,0.00,VWS V14.01,2013-05-14 23:19:00,
2013-05-14 18:25:00,83.5,56.0,19.86,SSE,158,7.0,16.0,39,0.00,,SKC,0.00,VWS V14.01,2013-05-14 23:25:00,
2013-05-14 18:30:00,84.7,53.3,19.86,SSE,159,8.0,17.0,34,0.00,,SKC,0.00,VWS V14.01,2013-05-14 23:30:00,
2013-05-14 18:31:00,83.4,56.6,19.86,SSW,193,10.0,16.0,40,0.00,,SKC,0.00,VWS V14.01,2013-05-14 23:31:00,
2013-05-14 18:37:00,83.2,57.1,19.86,SSW,195,9.0,14.0,41,0.00,,SKC,0.00,VWS V14.01,2013-05-14 23:37:00,
2013-05-14 18:43:00,83.2,57.1,19.86,SSW,206,3.0,14.0,41,0.00,,SKC,0.00,VWS V14.01,2013-05-14 23:43:00,
2013-05-14 18:49:00,83.0,56.9,19.86,SSE,168,6.0,14.0,41,0.00,,SKC,0.00,VWS V14.01,2013-05-14 23:49:00,
2013-05-14 18:55:00,82.8,56.7,19.86,SSE,152,2.0,14.0,41,0.00,,SKC,0.00,VWS V14.01,2013-05-14 23:55:00,
2013-05-14 19:00:00,84.0,55.7,19.86,SW,215,6.0,19.0,38,0.00,,SKC,0.00,VWS V14.01,2013-05-15 00:00:00,
2013-05-14 19:01:00,82.7,57.3,19.86,West,281,7.0,14.0,42,0.00,,SKC,0.00,VWS V14.01,2013-05-15 00:01:00,
2013-05-14 19:07:00,82.5,57.1,19.86,SSE,159,5.0,14.0,42,0.00,,SKC,0.00,VWS V14.01,2013-05-15 00:07:00,
2013-05-14 19:13:00,82.4,56.4,19.86,South,190,7.0,14.0,41,0.00,,SKC,0.00,VWS V14.01,2013-05-15 00:13:00,
2013-05-14 19:19:00,82.2,56.2,19.86,South,170,7.0,14.0,41,0.00,,SKC,0.00,VWS V14.01,2013-05-15 00:19:00,
2013-05-14 19:25:00,82.1,56.1,19.86,SE,124,6.0,14.0,41,0.00,,SKC,0.00,VWS V14.01,2013-05-15 00:25:00,
2013-05-14 19:30:00,83.4,56.6,19.86,SSW,193,10.0,16.0,40,0.00,,SKC,0.00,VWS V14.01,2013-05-15 00:30:00,
2013-05-14 19:31:00,81.9,55.9,19.86,SSW,192,4.0,14.0,41,0.00,,SKC,0.00,VWS V14.01,2013-05-15 00:31:00,
2013-05-14 19:37:00,81.6,55.6,19.86,SE,140,2.0,8.0,41,0.00,,SKC,0.00,VWS V14.01,2013-05-15 00:37:00,
2013-05-14 19:43:00,81.4,56.1,19.86,SSW,204,2.0,8.0,42,0.00,,SKC,0.00,VWS V14.01,2013-05-15 00:43:00,
2013-05-14 19:49:00,81.2,56.0,19.86,South,182,4.0,12.0,42,0.00,,SKC,0.00,VWS V14.01,2013-05-15 00:49:00,
2013-05-14 19:55:00,80.9,55.7,19.86,ESE,103,5.0,12.0,42,0.00,,SKC,0.00,VWS V14.01,2013-05-15 00:55:00,
2013-05-14 20:00:00,82.7,57.3,19.86,West,281,7.0,14.0,42,0.00,,SKC,0.00,VWS V14.01,2013-05-15 01:00:00,
2013-05-14 20:01:00,80.5,56.0,19.86,South,170,3.0,12.0,43,0.00,,SKC,0.00,VWS V14.01,2013-05-15 01:01:00,
2013-05-14 20:07:00,80.1,55.6,19.86,SSE,168,7.0,7.0,43,0.00,,SKC,0.00,VWS V14.01,2013-05-15 01:07:00,
2013-05-14 20:13:00,79.7,55.2,19.86,SSE,154,4.0,7.0,43,0.00,,SKC,0.00,VWS V14.01,2013-05-15 01:13:00,
2013-05-14 20:20:00,79.4,55.6,19.86,SSW,194,7.0,8.0,44,0.00,,SKC,0.00,VWS V14.01,2013-05-15 01:20:00,
2013-05-14 20:26:00,79.1,56.0,19.86,South,183,7.0,10.0,45,0.00,,SKC,0.00,VWS V14.01,2013-05-15 01:26:00,
2013-05-14 20:30:00,81.9,55.9,19.86,SSW,192,4.0,14.0,41,0.00,,SKC,0.00,VWS V14.01,2013-05-15 01:30:00,
2013-05-14 20:31:00,78.9,55.8,19.86,South,172,2.0,10.0,45,0.00,,SKC,0.00,VWS V14.01,2013-05-15 01:31:00,
2013-05-14 20:38:00,78.5,56.0,19.86,South,190,6.0,7.0,46,0.00,,SKC,0.00,VWS V14.01,2013-05-15 01:38:00,
2013-05-14 20:44:00,78.3,56.4,19.86,South,173,2.0,8.0,47,0.00,,SKC,0.00,VWS V14.01,2013-05-15 01:44:00,
2013-05-14 20:50:00,78.1,56.8,19.86,South,175,3.0,9.0,48,0.00,,SKC,0.00,VWS V14.01,2013-05-15 01:50:00,
2013-05-14 20:56:00,77.8,57.1,19.86,South,178,5.0,9.0,49,0.00,,SKC,0.00,VWS V14.01,2013-05-15 01:56:00,
2013-05-14 21:00:00,80.5,56.0,19.86,South,170,3.0,12.0,43,0.00,,SKC,0.00,VWS V14.01,2013-05-15 02:00:00,
2013-05-14 21:01:00,77.6,57.5,19.86,SSE,167,2.0,9.0,50,0.00,,SKC,0.00,VWS V14.01,2013-05-15 02:01:00,
2013-05-14 21:08:00,77.4,57.3,19.86,SSE,153,5.0,9.0,50,0.00,,SKC,0.00,VWS V14.01,2013-05-15 02:08:00,
2013-05-14 21:14:00,77.1,57.6,19.86,SSW,193,3.0,9.0,51,0.00,,SKC,0.00,VWS V14.01,2013-05-15 02:14:00,
2013-05-14 21:20:00,76.8,57.9,19.86,SSE,168,2.0,9.0,52,0.00,,SKC,0.00,VWS V14.01,2013-05-15 02:20:00,
2013-05-14 21:26:00,76.5,58.1,19.86,South,175,2.0,9.0,53,0.00,,SKC,0.00,VWS V14.01,2013-05-15 02:26:00,
2013-05-14 21:30:00,78.9,55.8,19.86,South,172,2.0,10.0,45,0.00,,SKC,0.00,VWS V14.01,2013-05-15 02:30:00,
2013-05-14 21:31:00,76.2,57.8,19.86,South,186,3.0,9.0,53,0.00,,SKC,0.00,VWS V14.01,2013-05-15 02:31:00,
2013-05-14 21:38:00,75.7,57.9,19.86,SSE,165,2.0,8.0,54,0.00,,SKC,0.00,VWS V14.01,2013-05-15 02:38:00,
2013-05-14 21:44:00,75.2,57.9,19.86,South,173,3.0,8.0,55,0.00,,SKC,0.00,VWS V14.01,2013-05-15 02:44:00,
2013-05-14 21:50:00,74.8,58.1,19.86,SSE,152,4.0,8.0,56,0.00,,SKC,0.00,VWS V14.01,2013-05-15 02:50:00,
2013-05-14 21:56:00,74.4,57.7,19.86,ESE,121,3.0,8.0,56,0.00,,SKC,0.00,VWS V14.01,2013-05-15 02:56:00,
2013-05-14 22:00:00,77.6,57.5,19.86,SSE,167,2.0,9.0,50,0.00,,SKC,0.00,VWS V14.01,2013-05-15 03:00:00,
2013-05-14 22:01:00,74.0,57.8,19.86,ESE,119,2.0,8.0,57,0.00,,SKC,0.00,VWS V14.01,2013-05-15 03:01:00,
2013-05-14 22:08:00,73.6,57.9,19.86,ESE,121,2.0,5.0,58,0.00,,SKC,0.00,VWS V14.01,2013-05-15 03:08:00,
2013-05-14 22:14:00,73.4,57.7,19.86,East,100,3.0,5.0,58,0.00,,SKC,0.00,VWS V14.01,2013-05-15 03:14:00,
2013-05-14 22:20:00,73.2,58.0,19.86,SE,132,4.0,5.0,59,0.00,,SKC,0.00,VWS V14.01,2013-05-15 03:20:00,
2013-05-14 22:26:00,73.2,58.5,19.86,SSE,160,3.0,6.0,60,0.00,,SKC,0.00,VWS V14.01,2013-05-15 03:26:00,
2013-05-14 22:30:00,76.2,57.8,19.86,South,186,3.0,9.0,53,0.00,,SKC,0.00,VWS V14.01,2013-05-15 03:30:00,
2013-05-14 22:31:00,73.3,59.0,19.86,ESE,108,9.0,9.0,61,0.00,,SKC,0.00,VWS V14.01,2013-05-15 03:31:00,
2013-05-14 22:38:00,73.5,59.7,19.86,SSE,161,3.0,9.0,62,0.00,,SKC,0.00,VWS V14.01,2013-05-15 03:38:00,
2013-05-14 22:44:00,73.7,59.9,19.86,South,181,5.0,9.0,62,0.00,,SKC,0.00,VWS V14.01,2013-05-15 03:44:00,
2013-05-14 22:50:00,73.8,60.0,19.86,SSE,148,4.0,12.0,62,0.00,,SKC,0.00,VWS V14.01,2013-05-15 03:50:00,
2013-05-14 22:56:00,73.8,60.4,19.86,South,171,7.0,12.0,63,0.00,,SKC,0.00,VWS V14.01,2013-05-15 03:56:00,
2013-05-14 23:00:00,74.0,57.8,19.86,ESE,119,2.0,8.0,57,0.00,,SKC,0.00,VWS V14.01,2013-05-15 04:00:00,
2013-05-14 23:01:00,73.8,60.4,19.86,SE,126,5.0,12.0,63,0.00,,SKC,0.00,VWS V14.01,2013-05-15 04:01:00,
2013-05-14 23:02:00,73.8,60.4,19.86,ENE,78,8.0,8.0,63,0.00,,SKC,0.00,VWS V14.01,2013-05-15 04:02:00,
2013-05-14 23:08:00,73.7,60.3,19.86,SSE,167,4.0,9.0,63,0.00,,SKC,0.00,VWS V14.01,2013-05-15 04:08:00,
2013-05-14 23:11:00,73.7,60.3,19.86,South,186,4.0,12.0,63,0.00,,SKC,0.00,VWS V14.01,2013-05-15 04:11:00,
2013-05-14 23:17:00,73.6,60.7,19.86,SSE,157,2.0,12.0,64,0.00,,SKC,0.00,VWS V14.01,2013-05-15 04:17:00,
2013-05-14 23:23:00,73.5,61.0,19.86,South,170,8.0,12.0,65,0.00,,SKC,0.00,VWS V14.01,2013-05-15 04:23:00,
2013-05-14 23:29:00,73.5,61.0,19.86,SSE,160,6.0,12.0,65,0.00,,SKC,0.00,VWS V14.01,2013-05-15 04:29:00,
2013-05-14 23:30:00,73.3,59.0,19.86,ESE,108,9.0,9.0,61,0.00,,SKC,0.00,VWS V14.01,2013-05-15 04:30:00,
2013-05-14 23:35:00,73.8,61.3,19.86,South,172,3.0,11.0,65,0.00,,SKC,0.00,VWS V14.01,2013-05-15 04:35:00,
2013-05-14 23:41:00,73.9,61.4,19.86,SSE,155,6.0,12.0,65,0.00,,SKC,0.00,VWS V14.01,2013-05-15 04:41:00,
2013-05-14 23:47:00,73.8,61.3,19.86,South,178,4.0,12.0,65,0.00,,SKC,0.00,VWS V14.01,2013-05-15 04:47:00,
2013-05-14 23:53:00,73.6,61.5,19.86,SSW,198,7.0,12.0,66,0.00,,SKC,0.00,VWS V14.01,2013-05-15 04:53:00,
2013-05-14 23:59:00,73.4,61.4,19.86,South,173,5.0,12.0,66,0.00,,SKC,0.00,VWS V14.01,2013-05-15 04:59:00,